K9JM Weather Reports


time (UTC)temp
C
wind
direction
speed
KPH
gust
KPH
rain 1hr
cm
rain 24hr
cm
rain mn
cm
humidity
%
barometer
mb
20260901010036 23 180 1.6 8.0 0.00 0.00 0.00 36 1011.3
20260901004516 23 158 1.6 6.4 0.00 0.00 0.00 38 1011.5
20260901003016 23 158 1.6 8.0 0.00 0.00 0.00 39 1011.7
20260901001516 24 0.0 4.8 0.00 0.00 0.00 40 1011.8
20260901000016 24 135 1.6 4.8 0.00 0.00 0.00 39 1011.7
20260831234516 24 113 1.6 6.4 0.00 0.00 0.00 38 1012.0
20260831233016 25 113 1.6 6.4 0.00 0.00 0.00 37 1012.1
20260831231536 25 180 1.6 11.3 0.00 0.00 0.00 37 1012.1
20260831230016 25 113 1.6 8.0 0.00 0.00 0.00 37 1012.1
20260831224516 25 113 1.6 9.7 0.00 0.00 0.00 36 1012.2
20260831223016 26 180 1.6 6.4 0.00 0.00 0.00 34 1012.4
20260831221516 26 180 1.6 6.4 0.00 0.00 0.00 35 1012.3
20260831220016 26 113 3.2 14.5 0.00 0.00 0.00 35 1012.3
20260831214516 26 135 3.2 8.0 0.00 0.00 0.00 33 1012.4
20260831213016 26 203 1.6 9.7 0.00 0.00 0.00 35 1012.7
20260831211516 26 203 1.6 6.4 0.00 0.00 0.00 37 1012.9
20260831210016 26 135 1.6 9.7 0.00 0.00 0.00 37 1012.9
20260831204516 26 180 1.6 8.0 0.00 0.00 0.00 35 1012.9
20260831203016 26 225 1.6 8.0 0.00 0.00 0.00 38 1013.0
20260831201536 27 203 1.6 8.0 0.00 0.00 0.00 37 1013.2
20260831200016 27 270 1.6 6.4 0.00 0.00 0.00 40 1013.0
20260831194516 26 270 1.6 4.8 0.00 0.00 0.00 40 1013.2
20260831193016 26 270 1.6 6.4 0.00 0.00 0.00 40 1013.3
20260831191516 27 0.0 4.8 0.00 0.00 0.00 39 1013.3
20260831190016 27 0.0 4.8 0.00 0.00 0.00 36 1013.3
20260831184516 28 203 1.6 6.4 0.00 0.00 0.00 34 1013.4
20260831183016 27 158 1.6 8.0 0.00 0.00 0.00 36 1013.2
20260831181516 27 203 1.6 8.0 0.00 0.00 0.00 35 1013.1
20260831180016 27 113 1.6 8.0 0.00 0.00 0.00 35 1013.2
20260831174516 26 113 3.2 8.0 0.00 0.00 0.00 37 1013.4
20260831173016 26 135 1.6 6.4 0.00 0.00 0.00 37 1013.3
20260831171536 26 113 1.6 8.0 0.00 0.00 0.00 38 1013.6
20260831170016 25 113 1.6 6.4 0.00 0.00 0.00 38 1013.3
20260831164536 25 90 1.6 6.4 0.00 0.00 0.00 39 1013.3
20260831163015 24 45 1.6 6.4 0.00 0.00 0.00 39 1013.1
20260831161536 23 68 1.6 6.4 0.00 0.00 0.00 42 1012.9
20260831160016 22 68 1.6 6.4 0.00 0.00 0.00 44 1012.8
20260831154515 21 45 1.6 4.8 0.00 0.00 0.00 45 1012.7
20260831153015 21 68 1.6 6.4 0.00 0.00 0.00 44 1012.6
20260831151515 21 68 1.6 3.2 0.00 0.00 0.00 46 1012.8
20260831150015 21 0.0 1.6 0.00 0.00 0.00 47 1012.7
20260831144516 20 0.0 0.0 0.00 0.00 0.00 48 1012.6
20260831143015 19 0.0 3.2 0.00 0.00 0.00 49 1012.4
20260831141515 19 0.0 1.6 0.00 0.00 0.00 47 1012.3
20260831140016 19 0.0 1.6 0.00 0.00 0.00 47 1012.0
20260831134516 18 0.0 6.4 0.00 0.00 0.00 47 1011.8
20260831133016 18 0.0 0.0 0.00 0.00 0.00 48 1011.8
20260831131516 18 0.0 3.2 0.00 0.00 0.00 47 1011.9
20260831130015 18 0.0 1.6 0.00 0.00 0.00 48 1011.8
20260831124515 18 0.0 3.2 0.00 0.00 0.00 48 1011.7
20260831123016 18 0.0 3.2 0.00 0.00 0.00 49 1011.7
20260831121516 18 0.0 0.0 0.00 0.00 0.00 49 1011.9
20260831120015 18 0.0 0.0 0.00 0.00 0.00 48 1012.0
20260831114516 18 0.0 0.0 0.00 0.00 0.00 47 1011.9
20260831113015 18 0.0 0.0 0.00 0.00 0.00 46 1012.1
20260831111516 18 0.0 0.0 0.00 0.00 0.00 46 1012.2
20260831110016 18 0.0 0.0 0.00 0.00 0.00 47 1012.2
20260831104516 18 0.0 0.0 0.00 0.00 0.00 47 1012.4
20260831103015 18 0.0 0.0 0.00 0.00 0.00 48 1012.4
20260831101515 18 0.0 0.0 0.00 0.00 0.00 47 1012.2
20260831100016 18 0.0 0.0 0.00 0.00 0.00 47 1012.3
20260831094515 18 0.0 0.0 0.00 0.00 0.00 46 1012.3
20260831093015 18 0.0 0.0 0.00 0.00 0.00 47 1012.4
20260831091515 18 0.0 0.0 0.00 0.00 0.00 48 1012.5
20260831090015 18 0.0 0.0 0.00 0.00 0.00 48 1012.6
20260831084515 19 0.0 0.0 0.00 0.00 0.00 47 1012.5
20260831083015 19 0.0 0.0 0.00 0.00 0.00 47 1012.5
20260831081515 19 0.0 1.6 0.00 0.00 0.00 47 1012.6
20260831080015 19 0.0 1.6 0.00 0.00 0.00 47 1012.6
20260831074535 20 0.0 3.2 0.00 0.00 0.00 46 1012.8
20260831073015 20 0.0 0.0 0.00 0.00 0.00 45 1012.8
20260831071517 20 0.0 0.0 0.00 0.00 0.00 46 1012.9
20260831070017 20 0.0 1.6 0.00 0.00 0.00 45 1012.8
20260831064537 20 0.0 1.6 0.00 0.00 0.00 45 1012.8
20260831063016 20 0.0 1.6 0.00 0.00 0.00 45 1012.9
20260831061516 20 0.0 4.8 0.00 0.00 0.00 45 1013.1
20260831060017 21 0.0 1.6 0.00 0.00 0.00 44 1013.1
20260831054536 21 0.0 4.8 0.00 0.00 0.00 44 1013.2
20260831053016 21 0.0 4.8 0.00 0.00 0.00 43 1013.0
20260831051516 21 0.0 4.8 0.00 0.00 0.00 41 1013.2
20260831050016 22 0.0 0.0 0.00 0.00 0.00 40 1013.3
20260831044536 22 0.0 1.6 0.00 0.00 0.00 39 1013.0
20260831043016 22 0.0 0.0 0.00 0.00 0.00 38 1013.2
20260831041516 23 0.0 0.0 0.00 0.00 0.00 38 1013.2
20260831040016 23 0.0 0.0 0.00 0.00 0.00 38 1012.8
20260831034516 23 0.0 0.0 0.00 0.00 0.00 39 1012.8
20260831033016 23 0.0 0.0 0.00 0.00 0.00 40 1012.8
20260831031516 23 0.0 0.0 0.00 0.00 0.00 38 1012.6
20260831030016 24 0.0 0.0 0.00 0.00 0.00 36 1012.5
20260831024516 25 0.0 0.0 0.00 0.00 0.00 33 1012.0
20260831023016 25 0.0 0.0 0.00 0.00 0.00 32 1012.2
20260831021516 26 0.0 0.0 0.00 0.00 0.00 31 1012.0
20260831020016 26 0.0 0.0 0.00 0.00 0.00 30 1012.2
20260831014516 26 0.0 1.6 0.00 0.00 0.00 29 1012.0
20260831013016 27 0.0 1.6 0.00 0.00 0.00 28 1012.2
20260831011536 27 0.0 0.0 0.00 0.00 0.00 28 1012.4